Location: Casco Millpond
(44.5581°N, 87.6111°W)
Time: 21:36:55
(UTC+00:00)

SeaSat 1 - Pass Details

Date: 16 January 2026
Orbit: 737 x 739 km, 108.0° (Epoch: 10 February)

Event Time Altitude Azimuth Distance (km) Brightness Sun altitude
Rises 11:58:00 0° 30° (NNE) 3,183 5.9 -14.9°
Reaches altitude 10° 12:00:18 10° 34° (NE) 2,256 5.2 -14.5°
Maximum altitude 12:05:09 61° 115° (ESE) 837 3.0 -13.6°
Drops below altitude 10° 12:09:58 10° 196° (SSW) 2,241 4.9 -12.8°
Sets 12:12:15 0° 199° (SSW) 3,160 5.7 -12.4°
